DELTA 1 DEB, 7028

Orbit data source: Space-Track

DELTA 1 DEB, 7028 is space debris in SSO originally from a launch on Tue, 06 Nov 1973 UTC launched from the Air Force Western Test Range (AFWTR). Debris objects in space refer to the collection of defunct objects orbiting the Earth. Examples of debris include non-operational satellites, rocket bodies, and fragments generated from explosions, collisions, or faulty payload assembly.

Loading next visibility...
Identifier
7028, 1973-086U
Orbit
SSO
Country
Flag of USUS
Related business
Manufacturer
Unknown
Mission
Spacecraft
Bus & Motor
Unknown
Mass
Unknown
Launch date (UTC)
1973-11-06 (53 years ago)
Launch vehicle
Unknown
Launch site
Air Force Western Test Range (AFWTR)
Object type
Payload
Rocket body
Debris
Shape & HBR
Unknown shape, 0.6 m
Radar Cross Section
Medium (>0.1 m² and <1 m²)

Expand to show TLE details & history
Last TLE update: 21 hours ago

TLE from 21 hours ago
0 DELTA 1 DEB
1 07028U 73086U   26206.54407946 -.00000004  00000-0  37716-3 0  9998
2 07028 102.6883 224.7878 0082417  52.4761 101.8758 12.24562705356044
Epoch: 2026-07-25T13:03Z
TLE epoch observation values (Epoch: 2026-07-25T13:03:28.465Z)
Latitude
24.10803°
Longitude
-88.58135°
Altitude
1,589.281 km
Speed
7.07 km/s
True Right ascension
03h 22m 10s
True Declination
23° 59' 36"
Sunlit
Object was in daylight at epoch
Visualization orbit readout
Latitude
Unknown
Longitude
Unknown
Altitude
Unknown
Speed
Unknown
Apparent Right ascension
Unknown
Apparent Declination
Unknown
Sunlit
N/A
Visualization observer readout
Local Sidereal Time
23:16:42
Azimuth
Unknown
Elevation
Unknown
Doppler factor
Unknown
Orbital elements
Apogee altitude
1,635.876 km
Perigee altitude
1,504.857 km
Semi-major axis
7,948.503 km
Eccentricity
0.00824
Inclination
102.6883°
RAAN
224.7878°
Arg. of periapsis
52.4761°
True anomaly
102.79802°
Mean anomaly
101.8758°
Eccentric anomaly
102.33711°
Mean motion
3.06278 °/min
Orbital period
117.54 mins
BSTAR
0.00037716
Loading maneuver chart data...
Computing Atmospheric mass density...
Loading historical data...
Loading historical data...
Loading historical data...
Loading historical data...
Loading historical data...
Loading historical data...
Loading historical data...

Documentation

Showing up to 5 results
|